Flag for China Weather past 2 weeks in Fushun, Liaoning, China

Now
10 °F

Clear.


Feels Like: 1 °F
Forecast: -7 / 8 °F
Wind: 6 mph from Southwest

Location: Shenyang / Taoxian

Current Time: Dec 20, 2014 at 10:45:38 AM

Latest Report: Dec 20, 2014 at 10:00 AM


Visibility: 2 mi

Pressure: 30.33 "Hg

Humidity: 67%

Dew point: 1 °F

Location of FushunLocation

Historic Weather in Fushun — Graph

°F

Fushun temperature yesterday

Maximum temperature yesterday: 34 °F (at 10:00 AM)
Minimum temperature yesterday: 14 °F (at 11:30 PM)
Average temperature yesterday: 27 °F

Past Weeks' High & Low Weather Summary

 TemperatureHumidityPressure
High34 °F (Dec 9, 1:00 PM)100% (Dec 10, 8:00 AM)30.66 "Hg (Dec 10, 8:00 AM)
Low-13 °F (Dec 17, 1:30 AM)23% (Dec 9, 1:00 PM)30.09 "Hg (Dec 10, 12:30 PM)
Average12 °F64%30.33 "Hg
* Reported Dec 5 9:00 AM — Dec 20 9:30 AM, Fushun, Weather by CustomWeather, © 2014

Note: Actual official high and low records may vary slightly from our data, if they occured in-between our weather recording intervals... More about our weather records

Advertising

Fushun weather history for previous 24 hours

 ConditionsComfort  
Time TempWeatherWind HumidityBarometerVisibility
9:30 AM
Dec 20
7 °FClear.3 mph72%30.30 "Hg2 mi
9:00 AM3 °FClear.3 mph85%30.30 "Hg2 mi
8:30 AM0 °FClear.3 mph84%30.27 "Hg2 mi
8:00 AM0 °FClear.3 mph78%30.27 "Hg2 mi
7:30 AM-2 °FClear.3 mph84%30.27 "Hg2 mi
7:00 AM0 °FClear.3 mph84%30.27 "Hg4 mi
6:30 AM0 °FClear.3 mph84%30.24 "Hg4 mi
6:00 AM-2 °FClear.3 mph84%30.24 "Hg4 mi
5:30 AM0 °FClear.3 mph78%30.24 "Hg5 mi
5:00 AM0 °FClear.1 mph78%30.24 "Hg10 mi
4:30 AM0 °FClear.1 mph71%30.24 "Hg10 mi
4:00 AM5 °FClear.6 mph72%30.24 "Hg10 mi
3:30 AM5 °FClear.6 mph66%30.24 "Hg10 mi
3:00 AM10 °FClear.6 mph61%30.24 "Hg10 mi
2:30 AM12 °FClear.6 mph62%30.24 "Hg10 mi
2:00 AM12 °FClear.3 mph62%30.24 "Hg10 mi
1:30 AM16 °FClear.6 mph57%30.21 "Hg10 mi
1:00 AM16 °FClear.6 mph62%30.21 "Hg10 mi
12:30 AM14 °FClear.8 mph73%30.21 "Hg10 mi
12:00 AM18 °FPassing clouds.3 mph73%30.21 "HgN/A
11:30 PM
Dec 19
14 °FClear.1 mph73%30.21 "Hg10 mi
11:00 PM18 °FPassing clouds.3 mph68%30.21 "HgN/A
10:30 PM21 °FClear.3 mph63%30.21 "Hg10 mi
10:00 PM23 °FClear.1 mph58%30.21 "Hg10 mi
9:30 PM21 °FClear.1 mph58%30.21 "Hg10 mi
9:00 PM23 °FClear.1 mph54%30.21 "Hg10 mi
8:30 PM23 °FOvercast.3 mph58%30.21 "HgN/A
8:00 PM23 °FOvercast.3 mph58%30.21 "HgN/A
7:30 PM23 °FClear.3 mph58%30.21 "Hg10 mi
7:00 PM25 °FClear.6 mph54%30.21 "Hg10 mi
6:30 PM25 °FClear.8 mph50%30.21 "Hg10 mi
6:00 PM25 °FClear.10 mph54%30.21 "Hg10 mi
5:30 PM25 °FLight snow. Overcast.10 mph69%30.21 "Hg6 mi
5:00 PM25 °FLight snow. Overcast.3 mph86%30.18 "Hg5 mi
4:30 PM25 °FLight snow. Overcast.1 mph86%30.18 "Hg4 mi
4:00 PM25 °FLight snow. Overcast.3 mph86%30.18 "Hg2 mi
3:30 PM25 °FLight snow. Overcast.3 mph86%30.15 "Hg2 mi
3:00 PM25 °FLight snow. Overcast.6 mph86%30.15 "Hg2 mi
2:30 PM25 °FLight snow. Overcast.10 mph93%30.15 "Hg4 mi
2:00 PM27 °FLight snow. Overcast.No wind100%30.12 "Hg3 mi
1:30 PM28 °FOvercast.No wind93%30.12 "Hg3 mi
1:00 PM27 °FLight snow. Overcast.3 mph93%30.12 "Hg1 mi
12:30 PM28 °FSnow. Overcast.8 mph93%30.12 "Hg1 mi
12:00 PM30 °FSnow. Overcast.8 mph93%30.12 "Hg1 mi
11:30 AM30 °FLight snow. Overcast.6 mph93%30.12 "Hg1 mi
11:00 AM32 °FLight rain. Overcast.8 mph80%30.12 "Hg2 mi
10:30 AM34 °FOvercast.8 mph65%30.12 "HgN/A
10:00 AM34 °FOvercast.8 mph65%30.12 "HgN/A
Weather by CustomWeather, © 2014

See weather overviewHow to use our weather pages